Skip Page Navigation
NASA JPL Caltech
NASA Logo - Jet Propulsion Laboratory + View the NASA Portal
+ Center for Near-Earth Object Studies
JPL Home Earth Solar System Stars & Galaxies Technology
JPL Solar System Dynamics
BODIES ORBITS EPHEMERIDES TOOLS PHYSICAL DATA DISCOVERY FAQ SITE MAP
JPL Small-Body Database Browser
Search: [ help ]  
134387 (1996 TB16)
Classification: Main-belt Asteroid          SPK-ID: 2134387
Ephemeris | Orbit Diagram | Orbital Elements | Mission Design | Physical Parameters | Discovery Circumstances | Close-Approach Data ]

[ show orbit diagram ]
Orbital Elements at Epoch 2459000.5 (2020-May-31.0) TDB
Reference: JPL 16 (heliocentric ecliptic J2000)
 Element Value Uncertainty (1-sigma)   Units 
e .1993754856266172 4.8255e-08  
a 2.252825413738139 9.082e-09 au
q 1.803667252842113 1.0985e-07 au
i 3.982707851993006 4.9628e-06 deg
node 269.942565279957 7.439e-05 deg
peri 128.6729463516742 7.5605e-05 deg
M 334.7479854252786 1.5559e-05 deg
tp 2459087.132981784519
(2020-Aug-25.63298178)
5.3741e-05 TDB
period 1235.064764838505
3.38
7.4685e-06
2.045e-08
d
yr
n .2914826900167238 1.7626e-09 deg/d
Q 2.701983574634165 1.0893e-08 au
  Orbit Determination Parameters
   # obs. used (total)      408  
   data-arc span      8704 days (23.83 yr)  
   first obs. used      1996-10-02  
   last obs. used      2020-08-01  
   planetary ephem.      DE431  
   SB-pert. ephem.      SB431-N16  
   condition code      0  
   norm. resid. RMS      .59104  
   source      ORB  
   producer      Otto Matic  
   solution date      2020-Aug-25 10:56:30  

Additional Information
 Earth MOID = .814767 au 
 Jupiter MOID = 2.72024 au 
 T_jup = 3.596 
[ show covariance matrix ]

Ephemeris | Orbit Diagram | Orbital Elements | Mission Design | Physical Parameters | Discovery Circumstances | Close-Approach Data ]

Physical Parameter Table
Parameter Symbol Value Units Sigma Reference Notes
absolute magnitude H 16.7   n/a MPO338172  

134387 (1996 TB16)          Discovered 1996-Oct-04 by Spacewatch at Kitt Peak
Reference: 20060907/Numbers.arcLast Updated: 2006-09-10

[ show close-approach data ]
Alternate Designations
 1996 TB16 = 2003 WJ45 
Ephemeris | Orbit Diagram | Orbital Elements | Mission Design | Physical Parameters | Discovery Circumstances | Close-Approach Data ]
ABOUT SSD CREDITS/AWARDS PRIVACY/COPYRIGHT GLOSSARY LINKS
FirstGov 2020-Oct-28 03:41 UT
(server date/time)  
NASA Home Page
Site Manager:   Ryan S. Park
Webmaster  Alan B. Chamberlin